Temperature
16 16 16 16 15 15 15 15 15 15 15 15 15 15 15 15 15 15 15 15 15 15 14 15 15 15 15 15 15 15 15 15 15 15 15 15 15 15 15 15 15 15 15
16 16 15 15 15 15 15 15 15 15 15 15 15 15 15 15 15 15 14 15 15 15 14 14 14 14 14 14 14 15 15 15 15 15 15 15 15 15 15 15 15 15 15
15 15 15 15 15 15 15 15 15 15 15 15 15 14 14 14 14 14 14 14 14 14 14 14 14 14 14 14 14 14 14 14 14 14 14 14 14 14 15 15 15 15 15
15 15 15 15 15 15 15 15 15 15 15 14 14 14 14 14 14 14 14 14 14 14 14 14 14 14 14 14 14 14 14 14 14 14 14 14 14 14 14 15 15 15 15
15 15 15 14 14 14 15 14 14 14 14 14 14 14 14 14 14 14 14 14 14 14 14 14 14 14 14 14 14 14 14 14 14 14 14 14 14 14 14 14 14 14 14
14 14 14 14 14 14 14 14 14 14 14 14 14 13 14 13 13 13 13 13 13 13 13 13 13 14 14 14 14 14 14 14 14 14 14 14 14 14 14 14 14 14 14
14 14 14 14 14 14 14 14 14 14 14 13 13 13 13 13 13 13 13 13 13 13 13 13 13 13 13 13 13 13 13 13 13 13 13 14 14 14 14 14 14 14 14
14 14 14 14 14 13 13 13 13 13 13 13 13 13 12 13 13 13 13 13 13 13 13 13 13 13 13 13 13 13 13 13 13 13 13 13 13 13 14 14 14 14 14
14 14 13 13 13 13 13 13 13 13 13 13 12 12 12 12 12 12 12 12 12 12 12 12 13 13 13 13 13 13 13 13 13 13 13 13 13 13 13 13 13 13 13
13 13 13 13 13 13 13 13 13 13 12 12 12 12 12 12 12 12 12 12 12 12 12 12 12 12 12 12 12 12 13 13 13 13 13 13 13 13 13 13 13 13 13
13 13 13 13 13 12 12 12 12 12 12 12 12 12 12 12 12 11 11 12 12 12 12 12 12 12 12 12 12 12 12 12 13 13 13 13 13 13 13 13 13 13 12
13 13 12 12 12 12 12 12 12 12 12 12 12 12 12 12 11 11 11 11 11 11 11 11 11 12 12 12 12 12 12 12 12 12 12 12 12 12 12 13 12 12 12
12 12 12 12 12 12 12 12 12 12 12 12 12 11 11 11 11 11 11 11 11 11 11 11 11 11 11 11 12 12 12 12 12 12 12 12 12 12 12 12 12 12 12
12 12 12 12 12 12 11 11 11 11 11 11 11 11 11 11 11 11 11 11 10 10 11 11 11 11 11 11 11 11 12 12 12 12 12 12 12 12 12 12 12 12 12
12 12 12 12 12 11 11 11 11 11 11 11 11 11 11 11 11 11 11 10 10 10 10 10 10 11 11 11 11 11 11 11 11 11 11 11 11 11 11 12 12 12 11
12 12 12 12 11 11 11 11 11 11 11 11 11 11 10 11 10 10 10 10 10 10 10 10 10 10 10 10 11 11 11 11 11 11 11 11 11 11 11 11 11 11 11
12 12 11 11 11 11 11 11 11 11 10 10 10 10 10 10 10 10 10 10 10 10 10 10 10 10 10 10 10 10 10 11 11 11 11 11 11 11 10 10 11 11 11
11 11 11 11 11 11 11 10 10 10 10 10 10 10 10 10 10 10 10 10 10 10 10 10 10 10 10 10 10 10 10 10 10 10 10 10 10 10 10 10 10 10 10
11 11 11 11 11 11 10 10 10 10 10 10 10 10 10 10 10 10 9 9 9 9 9 9 9 9 9 9 9 9 9 9 10 10 10 10 10 10 10 10 10 10 10
11 11 11 10 10 10 10 10 10 10 10 9 9 9 9 9 9 9 9 9 9 9 9 9 9 9 9 9 9 9 9 9 9 9 9 9 9 9 9 9 9 9 9
11 10 10 10 10 10 10 9 9 9 9 9 9 9 9 9 9 9 9 9 9 9 9 8 8 8 8 8 8 8 8 8 8 8 9 9 9 9 9 9 9 9 9
10 10 10 10 10 9 9 9 9 9 9 9 9 9 9 8 8 8 8 8 8 8 8 8 8 8 8 8 8 8 7 8 7 8 8 8 8 8 8 9 9 9 9
10 10 10 9 9 9 9 9 9 8 8 9 8 8 8 8 8 8 8 8 8 8 8 8 8 8 7 7 7 7 7 7 7 7 7 8 8 8 8 8 8 8 8
10 9 9 9 9 9 8 8 8 8 8 8 8 7 7 7 7 7 7 7 8 7 7 7 7 7 7 7 7 7 7 7 7 7 7 7 7 7 8 8 8 8 8
9 9 9 9 8 8 8 8 8 8 8 8 7 7 7 7 7 7 7 7 7 7 7 7 7 7 7 7 7 7 6 6 6 6 6 6 7 7 7 7 7 7 7
8 8 8 8 8 8 7 7 7 7 7 7 7 7 7 6 6 6 6 6 6 7 6 6 6 6 6 6 6 6 6 6 6 6 6 6 6 6 6 6 6 7 7
Wind_Speed
3 3 3 4 4 5 5 4 5 5 5 5 6 6 4 5 5 5 5 6 6 7 6 6 6 7 7 6 6 6 6 6 6 6 6 6 6 6 5 5 5 5 5
3 3 2 3 4 4 5 5 4 4 3 4 4 4 4 4 4 5 5 5 6 7 6 6 6 6 6 6 6 5 5 5 6 6 5 5 5 5 4 4 5 5 5
4 4 3 2 3 5 5 5 5 4 4 4 4 3 3 3 4 4 5 5 5 6 6 6 6 6 5 6 6 5 5 5 5 5 5 5 5 5 4 4 4 4 4
6 5 3 2 4 5 4 3 3 3 3 3 2 2 2 2 3 3 4 4 4 5 5 6 6 6 6 6 6 5 5 5 5 5 5 5 5 4 4 3 3 3 3
6 5 3 3 4 4 3 3 3 2 2 2 2 2 2 2 2 3 3 3 4 4 4 5 6 6 6 6 5 5 5 4 4 4 4 4 5 5 4 3 3 3 3
6 5 4 4 4 3 3 3 3 3 2 1 2 3 3 2 2 2 2 2 3 3 4 4 4 5 6 5 5 4 4 4 4 4 4 4 4 4 4 4 3 3 3
5 5 4 3 3 3 2 2 2 3 3 2 3 3 4 3 3 2 2 2 2 2 3 3 3 3 3 4 4 3 3 3 3 3 3 3 3 3 3 3 3 3 2
4 4 3 2 2 3 3 3 3 2 2 2 2 2 3 4 3 3 2 2 2 2 2 2 2 1 2 2 2 3 2 2 2 2 2 2 2 2 3 3 2 3 2
3 3 3 3 2 2 2 1 2 2 1 2 1 2 2 1 3 3 3 2 2 2 2 2 2 1 1 1 1 2 2 2 2 2 1 1 1 1 2 2 2 2 2
2 3 3 2 2 1 1 0 1 1 2 0 1 1 1 2 1 2 3 3 3 2 3 2 2 1 1 1 2 2 2 3 3 3 2 2 1 1 0 1 2 2 2
2 2 2 2 1 1 0 0 1 1 1 1 0 0 1 1 1 1 2 3 3 3 2 2 1 1 1 1 2 3 3 3 3 3 3 2 2 1 1 1 1 1 1
1 1 2 2 1 1 0 0 0 0 0 1 0 1 1 1 1 1 1 2 3 3 3 2 1 2 2 2 3 4 4 4 4 3 3 3 2 2 2 1 1 0 1
1 1 1 1 1 1 1 0 0 0 0 0 0 1 1 1 1 2 2 2 2 3 2 2 2 2 2 2 3 4 4 4 4 5 4 3 3 3 3 2 1 1 1
2 1 1 1 1 1 1 1 0 1 0 0 1 1 1 2 1 2 2 2 1 2 2 3 2 2 3 2 4 3 3 4 4 5 4 4 3 3 3 2 2 2 1
1 1 1 1 0 0 0 0 0 1 0 1 1 1 1 2 1 1 1 2 3 2 3 3 2 2 3 3 4 2 3 4 4 4 5 4 3 3 3 2 2 2 1
2 1 1 0 0 0 0 1 0 1 0 1 1 1 2 2 1 1 1 1 2 3 3 3 3 3 2 3 4 3 4 5 4 4 4 4 2 1 1 1 1 1 1
2 2 2 1 0 0 0 0 1 0 1 2 2 1 2 2 1 1 0 1 1 2 3 3 2 2 1 2 3 3 3 3 3 4 4 3 2 2 2 2 2 1 1
3 2 2 1 1 0 0 0 1 1 1 2 2 1 2 2 1 1 1 1 2 2 3 3 2 1 1 1 1 2 3 4 3 4 4 3 3 3 2 2 2 2 2
2 2 2 2 1 1 1 1 1 1 1 2 2 2 2 1 2 2 2 2 2 1 2 2 2 1 1 1 1 2 3 3 4 4 5 4 4 4 3 3 3 4 4
3 2 2 1 1 0 1 1 1 1 2 2 2 2 2 2 3 3 2 2 2 1 1 1 1 1 1 1 1 1 2 2 3 4 5 5 4 5 5 5 5 4 4
2 3 2 2 1 1 1 1 1 1 1 2 3 3 3 2 3 2 2 2 2 2 1 1 2 1 1 0 1 1 1 1 2 2 2 3 3 3 4 5 5 5 5
2 3 2 2 1 1 2 2 2 1 1 1 2 3 3 2 3 3 3 2 2 3 3 2 2 2 3 2 1 1 1 1 2 2 1 2 1 2 2 3 5 5 5
2 2 1 1 1 1 2 3 3 2 1 1 2 2 2 2 3 2 3 3 2 2 2 3 3 4 4 3 3 2 2 2 3 3 1 2 2 2 3 4 6 6 5
2 2 1 1 0 1 2 2 3 2 1 2 2 2 1 2 2 1 1 2 2 2 2 2 4 4 4 4 4 4 3 1 2 2 1 2 2 3 4 4 6 5 5
2 1 1 1 0 1 2 2 3 1 1 2 3 2 2 2 3 4 1 1 2 2 3 2 3 3 3 3 2 1 1 1 2 3 1 1 2 2 3 3 5 5 4
2 2 1 0 1 1 2 2 2 1 1 2 2 3 3 3 4 4 1 1 2 3 2 3 3 3 2 2 2 2 3 2 2 2 2 1 2 1 2 2 2 4 4
Wind_Direction
69 54 44 41 38 40 47 55 61 63 59 61 68 74 69 67 70 69 65 63 59 56 58 63 63 62 65 66 64 66 66 68 70 75 78 78 75 75 78 74 72 73 80
69 72 61 45 40 43 54 66 69 68 59 63 57 63 69 70 72 66 65 61 55 51 51 56 61 59 57 59 63 69 69 65 67 71 76 76 71 69 77 75 67 69 77
80 74 72 55 44 57 61 66 60 59 51 51 46 49 64 70 71 70 68 62 57 51 48 47 49 56 58 55 55 60 65 66 65 67 66 68 66 67 72 76 66 68 77
80 74 66 50 50 62 62 62 57 53 38 35 31 28 38 57 59 67 68 65 59 54 47 45 46 49 54 54 54 52 53 60 66 65 60 58 54 57 64 80 70 71 77
74 73 65 53 55 60 53 57 55 68 47 24 24 37 19 26 36 59 54 56 52 52 51 42 44 46 48 48 52 49 48 51 60 65 62 55 52 45 57 68 75 71 83
72 75 69 56 60 62 47 49 54 40 46 28 39 35 10 4 24 43 45 52 41 36 40 43 46 41 38 35 42 46 47 52 56 57 57 57 54 50 61 65 64 71 88
75 77 68 60 54 63 55 59 68 46 28 30 50 20 5 12 29 21 26 33 21 17 29 29 34 42 32 24 25 30 42 46 47 45 48 49 44 50 67 61 52 59 92
81 81 75 70 60 63 51 52 68 61 25 35 75 64 11 352 353 357 357 4 357 15 15 5 14 36 17 19 10 17 24 19 22 32 29 22 30 45 65 62 53 52 72
82 71 80 82 70 76 73 45 72 94 53 356 56 115 121 249 308 324 339 350 352 353 345 339 353 339 327 341 331 356 357 344 344 348 341 320 348 42 56 58 59 66 81
71 81 80 75 84 84 88 25 60 93 110 353 336 25 164 176 175 306 325 334 335 329 322 342 346 332 323 312 309 320 314 310 309 310 306 298 287 259 44 52 58 60 82
38 75 82 68 67 61 69 42 36 58 108 154 203 307 40 44 114 163 295 319 329 313 305 304 313 326 305 297 303 303 297 299 301 303 306 292 296 272 220 153 86 57 68
338 30 69 67 60 36 337 301 130 132 132 131 171 168 163 163 226 186 231 279 295 303 308 311 326 316 297 284 300 308 301 287 285 285 288 286 274 262 233 199 188 151 143
252 254 83 96 56 5 354 48 122 279 171 135 219 249 224 215 200 186 187 246 280 300 318 322 321 325 316 302 296 303 302 293 282 276 273 280 267 249 232 220 228 231 186
212 202 140 104 58 53 32 38 291 279 352 261 282 270 255 244 208 193 180 173 279 307 316 301 313 326 327 308 298 298 308 303 291 285 282 281 274 241 221 229 245 240 208
194 145 130 142 55 86 70 103 315 283 291 253 260 266 268 263 239 221 186 175 177 240 273 285 298 308 317 307 307 311 300 302 297 287 283 279 273 236 214 217 232 218 218
180 158 178 190 195 191 171 157 20 283 318 291 273 293 299 286 274 229 200 203 185 187 241 261 258 279 308 327 313 311 305 314 305 304 300 286 274 274 245 246 243 213 241
175 177 178 171 206 156 19 72 283 347 324 318 319 311 300 291 263 259 215 198 208 175 225 273 270 275 294 330 338 328 328 333 326 324 321 314 298 281 260 278 272 242 247
185 186 171 157 195 254 229 299 271 308 272 290 292 297 295 303 295 258 226 230 227 203 197 248 283 285 271 289 349 357 355 354 346 335 332 332 331 312 293 289 288 288 278
174 168 157 164 203 262 283 291 273 281 276 274 273 270 282 281 272 273 244 243 241 232 204 206 258 266 268 355 30 6 6 358 352 351 354 353 353 351 333 313 295 289 278
160 161 159 151 151 331 322 323 317 324 314 301 289 276 276 250 241 246 245 233 215 207 205 198 240 263 268 319 64 360 348 351 341 349 358 359 -0 351 339 325 307 290 279
138 143 128 104 79 58 348 359 352 7 348 330 326 308 287 285 288 256 260 221 196 196 196 206 228 252 268 279 253 246 280 331 332 333 1 353 357 351 332 321 310 293 280
121 121 131 130 100 349 348 16 42 35 5 333 328 326 320 335 339 337 330 293 207 197 205 209 219 224 245 239 232 230 246 322 310 306 351 315 345 315 315 307 298 292 284
122 121 131 124 138 288 348 21 39 57 16 326 313 318 331 350 348 325 343 353 340 300 223 200 210 228 233 226 213 227 235 234 258 259 308 296 304 293 304 300 297 292 283
143 143 154 174 137 315 354 11 27 47 18 333 320 306 306 313 320 337 16 5 325 307 274 243 222 227 229 217 208 219 215 238 280 283 241 265 287 288 306 307 299 297 287
150 163 155 148 145 308 347 11 23 51 21 335 330 329 308 295 322 338 359 332 311 305 324 311 288 274 267 255 226 177 188 190 289 290 263 227 268 296 303 301 310 313 309
160 152 135 173 202 267 316 1 25 107 354 324 328 322 317 312 316 332 319 281 296 287 302 316 320 318 316 291 270 216 206 214 258 274 257 227 257 304 311 306 326 343 342
Height
1534 1533 1533 1532 1532 1531 1531 1530 1530 1529 1529 1528 1528 1527 1527 1526 1526 1525 1524 1524 1523 1522 1521 1521 1520 1519 1519 1519 1518 1518 1518 1518 1517 1517 1517 1517 1517 1517 1517 1517 1517 1517 1517
1535 1534 1534 1533 1533 1532 1532 1531 1530 1530 1529 1529 1528 1528 1527 1527 1526 1525 1525 1524 1523 1523 1522 1521 1521 1520 1519 1519 1519 1519 1518 1518 1518 1518 1518 1517 1517 1517 1517 1517 1517 1517 1517
1535 1535 1534 1534 1533 1533 1532 1532 1531 1530 1529 1529 1528 1528 1527 1527 1526 1525 1525 1524 1523 1523 1522 1522 1521 1520 1520 1519 1519 1519 1519 1518 1518 1518 1517 1517 1517 1517 1517 1517 1517 1517 1517
1536 1535 1535 1534 1534 1533 1533 1532 1531 1530 1530 1529 1528 1528 1528 1527 1526 1526 1525 1524 1524 1523 1523 1522 1522 1521 1520 1520 1519 1519 1519 1518 1518 1518 1518 1517 1517 1517 1517 1517 1517 1517 1517
1537 1536 1535 1535 1534 1534 1533 1532 1531 1531 1530 1529 1528 1528 1527 1527 1526 1526 1525 1525 1524 1523 1523 1522 1522 1522 1521 1520 1520 1519 1519 1518 1518 1518 1517 1517 1517 1517 1517 1517 1517 1517 1517
1537 1536 1535 1535 1534 1534 1533 1532 1531 1531 1530 1529 1528 1528 1527 1527 1527 1526 1526 1525 1525 1524 1523 1523 1522 1522 1521 1521 1520 1519 1519 1518 1518 1517 1517 1517 1517 1517 1516 1516 1516 1517 1517
1537 1536 1535 1535 1534 1533 1533 1532 1531 1530 1530 1529 1528 1527 1527 1527 1527 1526 1526 1525 1525 1524 1524 1523 1522 1522 1521 1521 1520 1519 1519 1518 1518 1517 1517 1517 1517 1516 1516 1516 1516 1516 1516
1537 1536 1535 1534 1534 1533 1533 1532 1531 1530 1529 1529 1528 1527 1527 1527 1526 1526 1526 1525 1525 1524 1523 1523 1522 1521 1521 1521 1520 1519 1518 1518 1517 1517 1516 1516 1516 1516 1516 1516 1516 1516 1516
1536 1536 1535 1534 1533 1533 1532 1531 1531 1530 1529 1529 1529 1528 1527 1526 1526 1525 1525 1524 1524 1523 1523 1522 1521 1521 1521 1520 1519 1518 1518 1517 1516 1516 1515 1515 1515 1514 1515 1515 1515 1515 1515
1535 1535 1534 1533 1533 1532 1531 1531 1530 1529 1529 1528 1528 1528 1528 1527 1526 1524 1524 1524 1523 1523 1522 1521 1521 1520 1520 1519 1518 1517 1517 1516 1515 1514 1514 1513 1513 1513 1513 1513 1514 1514 1515
1534 1534 1533 1532 1532 1531 1531 1530 1529 1529 1528 1528 1527 1527 1526 1526 1525 1524 1523 1522 1522 1521 1521 1520 1519 1519 1518 1518 1517 1516 1515 1514 1513 1513 1512 1512 1511 1511 1511 1512 1512 1513 1513
1533 1532 1532 1531 1530 1530 1529 1529 1528 1528 1527 1527 1526 1526 1525 1524 1524 1523 1522 1520 1520 1519 1519 1518 1518 1517 1517 1516 1515 1515 1514 1513 1512 1511 1511 1510 1509 1509 1510 1510 1511 1511 1512
1531 1531 1530 1529 1529 1528 1528 1527 1527 1526 1526 1525 1525 1524 1524 1523 1522 1522 1520 1519 1518 1517 1517 1517 1516 1515 1515 1514 1513 1513 1512 1511 1511 1510 1509 1508 1507 1507 1507 1508 1509 1509 1510
1529 1529 1529 1528 1527 1527 1526 1526 1525 1525 1524 1524 1523 1522 1522 1521 1521 1520 1519 1518 1517 1516 1515 1515 1514 1514 1513 1512 1512 1511 1510 1510 1509 1508 1508 1506 1505 1504 1504 1506 1507 1507 1508
1528 1527 1527 1526 1526 1525 1525 1524 1523 1523 1522 1521 1521 1520 1519 1519 1518 1518 1517 1516 1516 1514 1513 1512 1512 1512 1511 1511 1510 1509 1508 1508 1508 1507 1506 1505 1503 1502 1503 1504 1505 1506 1507
1526 1525 1525 1524 1524 1523 1522 1522 1521 1520 1520 1519 1518 1518 1517 1516 1516 1515 1514 1514 1514 1513 1511 1510 1509 1509 1509 1509 1508 1507 1507 1506 1506 1506 1505 1504 1503 1502 1502 1503 1503 1504 1504
1523 1523 1522 1522 1522 1521 1520 1519 1519 1518 1517 1516 1516 1515 1514 1513 1513 1512 1512 1511 1511 1510 1509 1508 1508 1507 1507 1506 1506 1505 1504 1504 1504 1504 1503 1503 1502 1501 1501 1501 1501 1502 1502
1521 1520 1520 1520 1519 1519 1518 1517 1516 1515 1514 1514 1513 1512 1511 1510 1510 1509 1508 1508 1507 1507 1507 1505 1505 1504 1504 1504 1503 1503 1502 1502 1501 1501 1501 1501 1500 1500 1500 1500 1500 1500 1500
1518 1518 1517 1517 1517 1516 1515 1515 1514 1513 1512 1511 1511 1510 1508 1508 1507 1506 1505 1505 1504 1504 1503 1503 1502 1502 1502 1501 1501 1501 1500 1499 1499 1498 1499 1498 1498 1498 1498 1497 1497 1498 1498
1515 1515 1515 1514 1514 1513 1512 1512 1511 1510 1509 1509 1508 1507 1506 1505 1504 1503 1502 1502 1501 1501 1500 1500 1499 1499 1499 1498 1498 1498 1497 1497 1496 1496 1496 1496 1495 1495 1495 1495 1495 1495 1496
1512 1512 1511 1511 1511 1510 1509 1509 1508 1507 1507 1506 1505 1504 1503 1502 1501 1501 1500 1499 1498 1498 1497 1497 1497 1496 1496 1496 1496 1496 1495 1494 1494 1494 1493 1493 1493 1493 1493 1493 1492 1493 1493
1509 1509 1508 1508 1508 1507 1507 1506 1505 1505 1504 1503 1502 1501 1500 1499 1498 1498 1497 1496 1496 1495 1494 1494 1494 1493 1493 1493 1493 1493 1492 1492 1491 1492 1491 1490 1491 1490 1490 1490 1490 1490 1490
1506 1506 1505 1505 1505 1504 1504 1503 1503 1502 1501 1500 1499 1498 1496 1495 1494 1494 1494 1493 1492 1492 1492 1492 1491 1491 1491 1491 1491 1491 1490 1489 1489 1489 1488 1487 1487 1487 1487 1487 1487 1487 1487
1503 1503 1502 1502 1502 1501 1501 1500 1500 1499 1498 1497 1496 1495 1493 1492 1492 1491 1490 1489 1489 1489 1489 1489 1488 1488 1488 1489 1489 1488 1487 1487 1486 1486 1486 1484 1483 1483 1484 1484 1484 1484 1484
1500 1500 1499 1499 1499 1498 1498 1497 1496 1495 1494 1494 1493 1491 1491 1489 1488 1488 1487 1486 1485 1485 1486 1486 1485 1485 1485 1486 1486 1485 1484 1484 1482 1483 1483 1482 1480 1480 1480 1480 1481 1481 1481
1496 1496 1496 1496 1496 1495 1495 1494 1493 1492 1491 1490 1489 1489 1488 1486 1485 1485 1484 1483 1482 1481 1482 1481 1482 1481 1481 1482 1482 1482 1481 1480 1479 1479 1479 1479 1478 1478 1476 1476 1477 1477 1477